Weather History for KVUO - June, 2013

Change the Weather History Date:

Thursday, June 27, 2013

  Actual Average Record
Temperature  
Mean Temperature 72 °F 65 °F  
Max Temperature 81 °F 76 °F 97 °F (2000)
Min Temperature 62 °F 55 °F 42 °F (1965)
Degree Days  
Heating Degree Days 0    
Month to date heating degree days 56  
Since 1 June heating degree days 56  
Since 1 July heating degree days 4200  
Cooling Degree Days 7    
Month to date cooling degree days 23  
Year to date cooling degree days 35  
Since 1 June cooling degree days 23  
Growing Degree Days 22 (Base 50)    
Moisture  
Dew Point 59 °F    
Average Humidity 69    
Maximum Humidity 93    
Minimum Humidity 45    
Precipitation  
Precipitation 0.00 in 0.05 in - ()
Month to date precipitation 1.75 1.67  
Year to date precipitation 14.98 20.25  
Snow  
Snow 0.00 in - - ()
Month to date snowfall 0.0  
Since 1 June snowfall 0.0  
Snow Depth 0.00 in    
Sea Level Pressure  
Sea Level Pressure 30.10 in    
Wind  
Wind Speed 4 mph (NW)    
Max Wind Speed 9 mph    
Max Gust Speed 13 mph    
Visibility 10 miles    
Events Rain    
T = Trace of Precipitation, MM = Missing Value Source: NWS Daily Summary

Daily Weather History Graph

Daily Weather History Graph

Search for Another Location

Airport or City:

Trip Planner

Search our weather history database for the weather conditions in past years. The results will help you decide how hot, cold, wet, or windy it might be!

Date:

Astronomy

Jun. 27, 2013 Rise Set
Actual Time 5:23 AM PDT 9:03 PM PDT
Civil Twilight 4:45 AM PDT 9:41 PM PDT
Nautical Twilight 3:54 AM PDT 10:32 PM PDT
Astronomical Twilight 2:45 AM PDT 11:41 PM PDT
Moon 11:45 PM PDT (6/27) 10:47 AM PDT (6/27)
Length of Visible Light 16h 56m
Length of Day
15h 40m
Waning Gibbous, 75% of the Moon is Illuminated
Jun 27
Waning Gibbous
Jun 29
Last Quarter
Jul 8
New
Jul 15
First Quarter
Jul 22
Full

Hourly Weather History & Observations

Time (PDT) Temp. Heat Index Dew Point Humidity Pressure Visibility Wind Dir Wind Speed Gust Speed Precip Events Conditions
12:53 AM 64.0 °F - 59.0 °F 84% 30.05 in 10.0 mi Calm Calm - 0.00 in Rain Light Rain
1:53 AM 64.0 °F - 60.1 °F 87% 30.04 in 10.0 mi Calm Calm - 0.00 in   Mostly Cloudy
2:11 AM 62.6 °F - 60.8 °F 94% 30.03 in 10.0 mi Calm Calm - N/A   Mostly Cloudy
2:53 AM 62.1 °F - 60.1 °F 93% 30.03 in 10.0 mi Calm Calm - N/A   Overcast
3:41 AM 62.6 °F - 60.8 °F 94% 30.03 in 10.0 mi Calm Calm - N/A   Overcast
3:53 AM 62.1 °F - 60.1 °F 93% 30.02 in 10.0 mi Calm Calm - N/A   Overcast
4:53 AM 62.1 °F - 60.1 °F 93% 30.02 in 10.0 mi Calm Calm - N/A   Overcast
5:53 AM 63.0 °F - 59.0 °F 87% 30.04 in 10.0 mi Calm Calm - N/A   Overcast
6:53 AM 63.0 °F - 57.9 °F 84% 30.04 in 10.0 mi ESE 3.5 mph - N/A   Overcast
7:53 AM 64.9 °F - 57.9 °F 78% 30.08 in 10.0 mi Calm Calm - N/A   Overcast
8:53 AM 68.0 °F - 57.9 °F 70% 30.09 in 10.0 mi ESE 5.8 mph - N/A   Overcast
9:53 AM 69.1 °F - 57.9 °F 68% 30.10 in 10.0 mi ESE 8.1 mph - N/A   Overcast
10:53 AM 72.0 °F - 59.0 °F 64% 30.12 in 10.0 mi SE 4.6 mph - N/A   Overcast
11:53 AM 75.0 °F - 57.9 °F 55% 30.12 in 10.0 mi Calm Calm - N/A   Overcast
12:53 PM 75.9 °F - 57.0 °F 52% 30.13 in 10.0 mi WSW 5.8 mph - N/A   Overcast
1:53 PM 75.9 °F - 57.9 °F 54% 30.13 in 10.0 mi WNW 3.5 mph - N/A   Overcast
2:53 PM 78.1 °F - 59.0 °F 52% 30.14 in 10.0 mi WSW 4.6 mph - N/A   Overcast
3:53 PM 79.0 °F - 57.9 °F 48% 30.14 in 10.0 mi Variable 6.9 mph - N/A   Overcast
4:53 PM 81.0 °F 81.1 °F 57.9 °F 45% 30.14 in 10.0 mi NNW 5.8 mph - N/A   Clear
5:53 PM 79.0 °F - 59.0 °F 50% 30.14 in 10.0 mi NNW 5.8 mph - N/A   Scattered Clouds
6:53 PM 78.1 °F - 59.0 °F 52% 30.14 in 10.0 mi WNW 6.9 mph - N/A   Overcast
7:53 PM 75.9 °F - 62.1 °F 62% 30.14 in 10.0 mi NW 6.9 mph - N/A   Overcast
8:53 PM 72.0 °F - 61.0 °F 68% 30.15 in 10.0 mi North 5.8 mph - N/A   Clear
9:53 PM 70.0 °F - 62.1 °F 76% 30.16 in 10.0 mi NW 5.8 mph - N/A   Clear
10:53 PM 66.9 °F - 62.1 °F 84% 30.16 in 10.0 mi WNW 4.6 mph - N/A   Clear
11:53 PM 66.0 °F - 61.0 °F 84% 30.15 in 10.0 mi Calm Calm - N/A   Clear